Home   Weather   Albuquerque   Past weeks
Flag for USA

Past Weather in Albuquerque, New Mexico, USA — Yesterday and Last 2 Weeks

Now
45 °F

Clear.


Feels Like: 45 °F
Forecast: 75 / 44 °F
Wind: No wind

Location: Albuquerque International Airport

Current Time: May 24, 2019 at 5:29:52 am

Latest Report: May 24, 2019 at 4:52 am


Visibility: 10 mi

Pressure: 29.93 "Hg (24.90 "Hg at 1510m altitude)

Humidity: 42%

Dew Point: 23 °F

Location of AlbuquerqueLocation

Past Weather in Albuquerque — Graph

°F

Albuquerque Temperature Yesterday

Maximum temperature yesterday: 74 °F (at 1:52 pm)
Minimum temperature yesterday: 55 °F (at 3:52 am)
Average temperature yesterday: 64 °F

High & Low Weather Summary for the Past Weeks

 TemperatureHumidityPressure
High84 °F (May 16, 5:52 pm)86% (May 11, 2:52 am)30.04 "Hg (May 11, 2:52 am)
Low40 °F (May 21, 2:52 am)11% (May 17, 7:52 pm)29.45 "Hg (May 20, 12:52 pm)
Average60 °F40%29.77 "Hg
* Reported May 9 3:52 am — May 24 3:52 am, Albuquerque. Weather by CustomWeather, © 2019

Note: Actual official high and low records may vary slightly from our data, if they occured in-between our weather recording intervals... More about our weather records

Advertising

Albuquerque Weather History for the Previous 24 Hours

Scroll right to see more
 ConditionsComfort  
Time TempWeatherWind HumidityBarometerVisibility
3:52 am
Fri, May 24
48 °FPassing clouds.No wind39%29.91 "Hg10 mi
2:52 am50 °FPassing clouds.6 mph38%29.89 "Hg10 mi
1:52 am51 °FPassing clouds.5 mph35%29.88 "Hg10 mi
12:52 am55 °FPassing clouds.10 mph29%29.87 "Hg10 mi
11:52 pm
Thu, May 23
57 °FPassing clouds.10 mph26%29.87 "Hg10 mi
10:52 pm58 °FClear.10 mph23%29.88 "Hg10 mi
9:52 pm61 °FClear.10 mph20%29.86 "Hg10 mi
8:52 pm63 °FClear.8 mph17%29.83 "Hg10 mi
7:52 pm66 °FPassing clouds.10 mph14%29.79 "Hg10 mi
6:52 pm68 °FPassing clouds.20 mph14%29.78 "Hg10 mi
5:52 pm70 °FPassing clouds.18 mph12%29.78 "Hg10 mi
4:52 pm70 °FScattered clouds.23 mph12%29.76 "Hg10 mi
3:52 pm71 °FPassing clouds.23 mph11%29.75 "Hg10 mi
2:52 pm73 °FScattered clouds.28 mph17%29.71 "Hg10 mi
1:52 pm74 °FScattered clouds.33 mph15%29.68 "Hg10 mi
12:52 pm73 °FScattered clouds.33 mph15%29.69 "Hg10 mi
11:52 am73 °FScattered clouds.35 mph17%29.69 "Hg10 mi
10:52 am70 °FScattered clouds.33 mph23%29.70 "Hg10 mi
9:52 am69 °FPassing clouds.30 mph24%29.67 "Hg10 mi
8:52 am67 °FPassing clouds.26 mph26%29.65 "Hg10 mi
7:52 am65 °FPassing clouds.23 mph28%29.64 "Hg10 mi
6:52 am59 °FPassing clouds.16 mph35%29.64 "Hg10 mi
5:52 am55 °FClear.12 mph39%29.63 "Hg10 mi
Weather by CustomWeather, © 2019

See weather overview